Location: Chinna Viriv?da
(16.5281°N, 81.0493°E)
Time: 22:44:43
(UTC+00:00)

COSMOS 2428 - Pass Details

Date: 14 April 2026
Orbit: 843 x 855 km, 70.9° (Epoch: 9 May)

Event Time Altitude Azimuth Distance (km) Brightness Sun altitude
Rises 13:36:28 0° 188° (S) 3,402 5.8 -11.5°
Reaches altitude 10° 13:38:56 10° 185° (S) 2,470 5.0 -12.1°
Maximum altitude 13:44:31 62° 105° (ESE) 954 2.7 -13.4°
Drops below altitude 10° 13:50:08 10° 26° (NNE) 2,479 5.0 -14.7°
Sets 13:52:37 0° 23° (NNE) 3,417 5.8 -15.2°
